Pagina principale
METAR-TAF:

METAR-TAF

Aeroporti :

Aeroporto di Foggia

Foggia, Italia

latitudine: 41-25-58N, longitudine: 015-32-06E, altezza: 81 m

Osservazione

Il bollettino è stato emesso 1 ora e 13 minuti fa, alle 11:50 UTC
Vento 10 kt da ovest/sud-ovest
Temperature 16°C
Umidità 59%
Pressione 1013 hPa
Visibilità 10 km o più
Poco nuvoloso ad un'altezza di 6000 ft

METAR: LIBF 211150Z 25010KT 9999 FEW060 16/08 Q1013

Ora: 14:03 (13:03 UTC)


TAF: mancante

Osservazioni e previsioni meteorologiche di più di 4000 aeroporti (messaggi METAR e TAF).

Le stazioni disponibili sono rappresentate dai dischi gialli e rossi sulla carta.

Puntare il mouse per vedere il nome della stazione.

Clicca sopra per visualizzare le osservazioni e previsioni meteorologiche.

Per cambiare la mappa : fare clic sui pulsanti verdi con una croce nera per ingrandire, il pulsante verde con un trattino per diminuire, o sulla freccia verde per le mappe adiacenti.


METAR-TAF: